Kailua Kona, HI

12:41 AM HST on January 24, 2017 (GMT -1000)
Kona International At Keahole

Weather History for PHKO - October, 2013

Change the Weather History Date:

Tuesday, October 29, 2013

  Actual Average Record
Temperature  
Mean Temperature 78 °F -  
Max Temperature 84 °F 82 °F 91 °F (1986)
Min Temperature 73 °F 72 °F 67 °F (1993)
Cooling Degree Days 14    
Growing Degree Days 28 (Base 50)    
Moisture  
Dew Point 65 °F    
Average Humidity 65    
Maximum Humidity 90    
Minimum Humidity 47    
Precipitation  
Precipitation 0.07 in - - ()
Sea Level Pressure  
Sea Level Pressure 30.00 in    
Wind  
Wind Speed 7 mph (SE)    
Max Wind Speed 16 mph    
Max Gust Speed 20 mph    
Visibility 10 miles    
Events Rain    
Averages and records for this station are not official NWS values.
T = Trace of Precipitation, MM = Missing Value Source: NWS Daily Summary

Daily Weather History Graph

Daily Weather History Graph

Search for Another Location

Airport or City:

Trip Planner

Search our weather history database for the weather conditions in past years. The results will help you decide how hot, cold, wet, or windy it might be!

Date:

Astronomy

Oct. 29, 2013 Rise Set
Actual Time 6:24 AM HST 5:51 PM HST
Civil Twilight 6:01 AM HST 6:13 PM HST
Nautical Twilight 5:35 AM HST 6:39 PM HST
Astronomical Twilight 5:09 AM HST 7:05 PM HST
Moon 2:02 AM HST (10/29) 2:37 PM HST (10/29)
Length of Visible Light 12h 12m
Length of Day
11h 27m
Waning Crescent, 23% of the Moon is Illuminated
Oct 29
Waning Crescent
Nov 3
New
Nov 9
First Quarter
Nov 17
Full
Nov 25
Last Quarter

Hourly Weather History & Observations

Time (HST) Temp. Heat Index Dew Point Humidity Pressure Visibility Wind Dir Wind Speed Gust Speed Precip Events Conditions
12:53 AM 77.0 °F - 59.0 °F 54% 30.00 in 10.0 mi NNE 4.6 mph - N/A   Clear
1:53 AM 78.1 °F - 59.0 °F 52% 29.98 in 10.0 mi NW 3.5 mph - N/A   Clear
2:53 AM 77.0 °F - 60.1 °F 56% 29.97 in 10.0 mi ENE 5.8 mph - N/A   Scattered Clouds
3:53 AM 75.9 °F - 61.0 °F 60% 29.97 in 10.0 mi NE 4.6 mph - N/A   Clear
4:53 AM 73.9 °F - 60.1 °F 62% 29.97 in 10.0 mi NE 6.9 mph - N/A   Partly Cloudy
5:53 AM 73.9 °F - 60.1 °F 62% 29.98 in 10.0 mi North 8.1 mph - N/A   Clear
6:53 AM 73.0 °F - 61.0 °F 66% 29.98 in 10.0 mi ESE 8.1 mph - N/A   Clear
7:53 AM 80.1 °F 81.1 °F 61.0 °F 52% 30.00 in 10.0 mi ESE 6.9 mph - N/A   Clear
8:53 AM 82.9 °F 83.3 °F 61.0 °F 47% 30.01 in 10.0 mi SSE 10.4 mph - N/A   Clear
9:53 AM 84.0 °F 85.4 °F 64.0 °F 51% 30.02 in 10.0 mi South 12.7 mph - N/A   Clear
10:53 AM 84.0 °F 86.3 °F 66.0 °F 55% 30.00 in 10.0 mi South 11.5 mph - N/A   Clear
11:53 AM 82.9 °F 85.8 °F 68.0 °F 60% 29.98 in 10.0 mi SSW 11.5 mph - N/A   Clear
12:53 PM 84.0 °F 86.3 °F 66.0 °F 55% 29.96 in 10.0 mi SSW 10.4 mph - N/A   Mostly Cloudy
1:53 PM 84.9 °F 88.8 °F 69.1 °F 59% 29.95 in 10.0 mi SW 9.2 mph - N/A   Partly Cloudy
2:53 PM 84.9 °F 89.4 °F 70.0 °F 61% 29.94 in 10.0 mi SW 11.5 mph - N/A   Mostly Cloudy
3:53 PM 82.9 °F 87.0 °F 70.0 °F 65% 29.95 in 10.0 mi WSW 12.7 mph - N/A   Mostly Cloudy
4:53 PM 82.0 °F 85.9 °F 70.0 °F 67% 29.96 in 10.0 mi WSW 12.7 mph - N/A   Mostly Cloudy
5:53 PM 81.0 °F 84.4 °F 70.0 °F 69% 29.99 in 10.0 mi West 13.8 mph - N/A   Overcast
6:45 PM 77.0 °F - 66.2 °F 69% 30.01 in 10.0 mi ENE 3.5 mph - 0.00 in Rain Light Rain
6:53 PM 77.0 °F - 66.9 °F 71% 30.01 in 10.0 mi ENE 16.1 mph 19.6 mph 0.00 in Rain Light Rain
7:53 PM 73.0 °F - 70.0 °F 90% 30.04 in 5.0 mi Variable 4.6 mph - N/A Rain Heavy Rain
8:11 PM 73.4 °F - 68.0 °F 83% 30.04 in 10.0 mi Calm Calm - 0.06 in Rain Heavy Rain
8:53 PM 73.9 °F - 69.1 °F 85% 30.05 in 10.0 mi Calm Calm - 0.07 in   Overcast
9:53 PM 73.9 °F - 70.0 °F 87% 30.05 in 10.0 mi Calm Calm - N/A   Mostly Cloudy
10:53 PM 73.0 °F - 66.9 °F 81% 30.04 in 10.0 mi ENE 4.6 mph - N/A   Clear
11:53 PM 73.0 °F - 66.0 °F 79% 30.03 in 10.0 mi East 5.8 mph - N/A   Clear